Location: Krasnoyarskiy Pitomnik
(51.1333°N, 71.6167°E)
Time: 15:00:24
(UTC+00:00)

COSMOS 2455 - Pass Details

Date: 22 October 2021
Orbit: 898 x 911 km, 67.1° (Epoch: 26 November)

Event Time Altitude Azimuth Distance (km) Brightness Sun altitude
Exits shadow 22:03:37 31° 114° (ESE) 1,534 4.2 -35.3°
Maximum altitude 22:03:47 31° 111° (ESE) 1,533 4.2 -35.3°
Drops below altitude 10° 22:08:59 10° 51° (NE) 2,602 6.0 -34.6°
Sets 22:11:45 0° 42° (NE) 3,549 6.9 -34.2°
